Location: Yucca Valley
(34.1140°N, 116.4310°W)
Time: 10:46:12
(UTC-07:00)

Daily predictions for brighter satellites

Satellite Brightness Start Highest point End
(mag) Time Altitude Azimuth Time Altitude Azimuth Time Altitude Azimuth
H-2A R/B 4.2 19:36:57 10° W 19:42:36 62° S 20:26:53 13° ESE
H-2A R/B 4.2 19:36:57 10° W 19:42:36 62° S 20:26:57 13° ESE
H-2A R/B 4.2 19:36:58 10° W 19:42:36 62° S 20:26:54 13° ESE
H-2A R/B 4.2 19:36:58 10° W 19:42:36 62° S 20:26:58 13° ESE
H-2A R/B 4.2 19:36:57 10° W 19:42:36 62° S 20:26:54 13° ESE
H-2A R/B 4.2 19:36:57 10° W 19:42:36 62° S 20:26:55 13° ESE
H-2A R/B 4.2 19:36:58 10° W 19:42:37 62° S 20:26:54 13° ESE
H-2A R/B 4.2 19:36:58 10° W 19:42:37 62° S 20:26:52 13° ESE
SL-16 R/B 3.4 19:44:15 10° SE 19:48:08 19° E 19:52:00 10° ENE
GPS 2-04 Rocket1 2.8 19:51:32 10° W 19:55:02 55° SSW 19:58:42 10° ESE
FREGAT/IRIS 4.3 19:58:05 10° SSW 20:00:54 36° W 20:03:45 10° NNW
OAO 3 Rocket 3.2 19:56:45 10° WSW 20:01:38 74° SSE 20:06:33 10° E
SEDSat Delta rocket 4.2 19:58:25 10° SW 20:03:10 36° SSE 20:08:32 10° E
Resurs 01 Rocket 1.6 20:01:17 10° SSE 20:05:41 67° ENE 20:10:06 10° N
Cosmos 1331 Rocket 4.5 20:01:00 10° SSW 20:06:15 68° WNW 20:11:33 10° NNE
Helios 1A 4.1 20:03:29 10° SE 20:07:02 27° ENE 20:10:36 10° NNE
Atlas Centaur 2 3.6 20:04:24 10° SSW 20:10:25 32° SSE 20:16:54 12° E
HJ-1C 4.2 20:08:04 10° S 20:11:27 55° W 20:14:50 10° NNW
USA 234 4.1 20:07:21 10° E 20:13:11 38° NE 20:19:07 10° NNW
Cosmos 2360 4.2 20:10:46 10° SSW 20:16:29 89° ESE 20:22:15 10° NNE
ATLAS CENTAUR R/B 2.1 20:18:28 10° NW 20:21:15 76° SW 20:28:14 10° SSE
Cosmos 1408 4.0 20:21:02 10° NNE 20:23:49 20° ENE 20:24:36 19° E
Cosmos 1455 2.4 20:21:24 10° S 20:25:12 74° W 20:29:00 10° N
Molniya-1 3.7 20:23:53 10° SW 20:25:23 38° NW 20:27:09 10° NNE
Cosmos 1869 3.2 20:25:55 10° S 20:29:46 60° E 20:33:40 10° NNE
Cosmos 1486 Rocket 4.1 20:25:11 10° N 20:30:21 59° ENE 20:34:21 17° SSE
OTV 4 0.8 20:30:29 10° W 20:33:17 49° SSW 20:34:14 32° SSE
IUS-7 SRM-1 4.4 20:33:09 10° WSW 20:36:05 33° S 20:40:16 20° ESE
Cosmos 1992 Rocket 4.4 20:35:28 10° S 20:40:17 39° E 20:45:09 10° NNE
Cosmos 1400 Rocket 4.0 20:36:49 10° NNW 20:40:30 42° W 20:44:13 10° SSW
SeaSat 1 4.4 20:39:59 12° ENE 20:41:25 13° NE 20:43:37 10° NNE
CZ-4B DEB 4.5 20:39:54 26° SSE 20:41:45 66° ENE 20:45:17 10° N
USA 186 2.0 20:42:33 21° S 20:44:00 51° W 20:46:43 10° NNW
Cosmos 1892 4.1 20:42:23 10° NNW 20:45:54 37° W 20:49:25 10° SSW
Milstar 3 3.1 20:39:21 10° W 20:47:17 55° S 20:50:57 26° ESE
Gblst 52 Del rocket 4.2 20:44:00 10° NW 20:49:46 77° SW 20:52:45 28° SE
Cosmos 2026 Rocket 4.0 20:44:17 10° N 20:50:27 60° E 20:54:29 22° SSE
Cosmos 1933 3.9 20:50:29 35° E 20:50:35 35° E 20:54:17 10° NNE
Cosmos 1315 Rocket 3.2 20:49:02 10° NNW 20:53:05 62° W 20:56:10 16° S
YAOGAN 6 3.5 20:54:41 31° ENE 20:54:41 31° ENE 20:57:44 10° N
DELTA 2 R/B (1) 3.6 20:51:30 10° WNW 20:57:08 77° SSW 20:59:32 35° SE
Cosmos 1503 Rocket 4.1 20:56:20 10° N 21:01:31 57° ENE 21:03:10 39° SE
CZ-3B DEB 2.6 21:01:13 10° WNW 21:03:34 17° WSW 21:04:07 16° SW
H-2A R/B 4.0 21:04:41 12° ENE 21:04:41 12° ENE 21:06:14 10° NE
Cosmos 1634 Rocket 4.5 20:58:01 10° SSW 21:04:12 62° W 21:10:29 10° N
Cosmos 2322 Rocket 2.2 20:59:04 10° SSW 21:04:40 81° WNW 21:10:19 10° NNE
Cosmos 1354 Rocket 4.0 20:59:40 10° N 21:04:55 63° ENE 21:06:35 41° SE
Cosmos 2263 Rocket 3.0 21:00:08 10° N 21:05:06 32° ENE 21:06:05 30° E
Meteor 1-29 4.2 21:06:28 10° N 21:09:45 41° WNW 21:13:01 10° SW
Cosmos 1733 Rocket 3.0 21:06:39 10° N 21:11:04 62° E 21:11:35 57° ESE
Cosmos 1862 Rocket 3.4 21:11:07 42° S 21:12:35 79° E 21:17:05 10° N
Cosmos 1655 Rocket 3.9 21:06:16 10° N 21:12:40 75° E 21:15:50 32° SSE
Helios 1B rocket 4.0 21:09:06 10° N 21:12:51 36° WNW 21:16:36 10° SW
Meteor 2-10 Rocket 4.0 21:11:52 42° SE 21:13:04 48° E 21:18:37 10° NNE
Cosmos 2360 Rocket 2.4 21:15:51 44° E 21:15:51 44° E 21:21:04 10° NE
Lacrosse 4 Rocket 1.7 21:11:42 10° NNW 21:15:57 53° ENE 21:16:01 53° ENE
GENESIS II 4.4 21:13:15 10° SW 21:17:17 73° WNW 21:21:21 10° NNE
Cosmos 1825 2.3 21:14:04 10° NNW 21:17:51 71° W 21:18:17 63° SW
Cosmos 1862 3.2 21:16:00 10° N 21:19:52 75° NE 21:19:52 75° NE
CZ-4B DEB 4.1 21:20:45 34° WSW 21:20:50 34° W 21:23:39 10° NNW
Cosmos 2322 4.3 21:22:29 37° ENE 21:22:29 37° ENE 21:26:40 10° NE
Cosmos 1939 Rocket 3.5 21:21:31 40° SSW 21:22:38 54° W 21:26:37 10° NNW
NOAA 11 4.4 21:24:37 48° E 21:25:06 50° ENE 21:30:23 10° N
Envisat 3.8 21:23:11 22° SSW 21:26:12 48° W 21:31:07 10° NNW
SL-16 R/B 3.1 21:26:20 10° SW 21:31:47 47° WNW 21:37:15 10° N
SPOT 5 3.6 21:34:04 40° NE 21:34:04 40° NE 21:37:53 10° N
Cosmos 2266 Rocket 4.2 21:32:12 10° N 21:38:16 49° E 21:38:21 49° E
MetOp-B 4.0 21:44:34 74° ENE 21:44:34 74° ENE 21:49:52 10° N
OAO 3 Rocket 3.3 21:40:18 10° W 21:44:57 75° NW 21:44:57 75° NW
ATLAS 5 CENTAUR R/B 3.1 21:41:30 10° NNW 21:47:12 39° NE 21:47:28 39° ENE
Meteor 1-26 Rocket 4.1 21:48:40 79° S 21:49:02 88° E 21:54:48 10° N
SEDSat Delta rocket 3.8 21:43:39 10° WSW 21:48:41 62° SSW 21:48:41 62° SSW
SPOT 1/Viking Rocket 4.4 21:52:07 40° NE 21:52:07 40° NE 21:55:58 10° N
Nimbus 7 Rocket 4.3 21:46:37 10° NNE 21:52:11 69° ENE 21:52:11 69° ENE
ARGOS 3.3 21:53:21 61° NE 21:53:21 61° NE 21:58:04 10° N
USA 234 3.5 21:54:42 50° S 21:55:56 58° SW 22:02:24 10° NW
Atlas Centaur 2 2.9 21:52:07 10° WSW 21:59:34 60° SSE 21:59:34 60° SSE
Cosmos 489 Rocket 4.4 21:54:52 10° NNW 22:01:08 74° ENE 22:01:08 74° ENE
ERS-1 Rocket 3.7 22:02:11 45° WSW 22:02:27 45° W 22:07:16 10° NNW
Cosmos 1844 Rocket 4.4 22:04:26 10° N 22:07:24 21° NE 22:07:24 21° NE
MOS 1-B Rocket 4.0 22:16:43 77° NW 22:16:43 77° NW 22:22:03 10° NNW
SeaSat 1 3.3 22:19:46 46° NW 22:19:46 46° NW 22:23:16 10° NNW
H-2A R/B 4.5 22:21:27 17° N 22:21:27 17° N 22:22:31 10° N
USA 229 DEB 4.2 22:39:03 40° WSW 22:41:12 55° NW 22:47:59 10° NNE
USA 229 4.2 22:39:21 42° WSW 22:41:17 56° NW 22:48:05 10° NNE
Terra 3.9 22:44:38 22° N 22:44:38 22° N 22:46:23 10° N
H-2A R/B 3.6 22:45:19 32° NNW 22:45:19 32° NNW 22:48:00 10° NNW
COSMOS 2428 4.2 22:46:58 30° N 22:46:58 30° N 22:49:50 10° NNE
Cosmos 2263 Rocket 3.8 22:44:11 10° NW 22:47:48 26° W 22:47:48 26° W
Cosmos 2360 Rocket 4.3 22:57:26 17° W 22:59:53 22° WNW 23:04:14 10° N
Cosmos 2333 Rocket 4.4 23:28:48 20° NNE 23:28:48 20° NNE 23:30:31 10° NNE
CZ-4C R/B 4.0 23:24:49 10° NNW 23:30:05 36° NNE 23:30:05 36° NNE
ATLAS 5 CENTAUR R/B 4.3 23:26:19 10° NW 23:29:01 24° WNW 23:29:01 24° WNW
Cosmos 2278 Rocket 4.3 23:36:00 10° NNW 23:37:59 22° N 23:37:59 22° N
